Wetterdaten: Samstag, 07.08.2021
Datum Zeit Temp. Auen Feucht Auen Luftdruck Regen Richtung Richtung Windben
07.08.2021 00:00 14,8 C 85 % 1009,7 hPa 0,0 mm W 264 0,0 km/h (0 Bft)
07.08.2021 00:05 14,7 C 85 % 1009,7 hPa 0,0 mm W 264 3,2 km/h (1 Bft)
07.08.2021 00:10 14,6 C 85 % 1009,7 hPa 0,0 mm W 264 1,6 km/h (1 Bft)
07.08.2021 00:15 14,6 C 85 % 1009,8 hPa 0,0 mm W 264 3,2 km/h (1 Bft)
07.08.2021 00:20 14,5 C 86 % 1009,8 hPa 0,0 mm W 264 0,0 km/h (0 Bft)
07.08.2021 00:25 14,4 C 86 % 1009,8 hPa 0,0 mm W 264 0,0 km/h (0 Bft)
07.08.2021 00:30 14,3 C 86 % 1009,7 hPa 0,0 mm W 264 3,2 km/h (1 Bft)
07.08.2021 00:35 14,2 C 86 % 1009,8 hPa 0,0 mm W 264 1,6 km/h (1 Bft)
07.08.2021 00:40 14,2 C 86 % 1009,8 hPa 0,0 mm W 264 0,0 km/h (0 Bft)
07.08.2021 00:45 14,1 C 86 % 1009,8 hPa 0,0 mm W 264 0,0 km/h (0 Bft)
07.08.2021 00:50 14,0 C 86 % 1009,9 hPa 0,0 mm W 264 1,6 km/h (1 Bft)
07.08.2021 00:55 13,9 C 86 % 1009,9 hPa 0,0 mm W 264 1,6 km/h (1 Bft)
07.08.2021 01:00 13,8 C 86 % 1009,9 hPa 0,0 mm W 264 0,0 km/h (0 Bft)
07.08.2021 01:05 13,7 C 86 % 1009,7 hPa 0,0 mm W 264 0,0 km/h (0 Bft)
07.08.2021 01:10 13,7 C 86 % 1009,7 hPa 0,0 mm W 264 1,6 km/h (1 Bft)
07.08.2021 01:15 13,6 C 87 % 1009,8 hPa 0,0 mm W 264 1,6 km/h (1 Bft)
07.08.2021 01:20 13,6 C 87 % 1009,8 hPa 0,0 mm W 264 3,2 km/h (1 Bft)
07.08.2021 01:25 13,5 C 87 % 1009,8 hPa 0,0 mm W 264 0,0 km/h (0 Bft)
07.08.2021 01:30 13,4 C 87 % 1009,8 hPa 0,0 mm W 264 0,0 km/h (0 Bft)
07.08.2021 01:35 13,4 C 87 % 1009,7 hPa 0,0 mm W 264 0,0 km/h (0 Bft)
07.08.2021 01:40 13,3 C 87 % 1009,7 hPa 0,0 mm W 264 0,0 km/h (0 Bft)
07.08.2021 01:45 13,2 C 87 % 1009,8 hPa 0,0 mm W 264 0,0 km/h (0 Bft)
07.08.2021 01:50 13,2 C 87 % 1009,7 hPa 0,0 mm W 264 3,2 km/h (1 Bft)
07.08.2021 01:55 13,1 C 87 % 1009,6 hPa 0,0 mm W 264 1,6 km/h (1 Bft)
07.08.2021 02:00 13,0 C 87 % 1009,6 hPa 0,0 mm W 264 0,0 km/h (0 Bft)
07.08.2021 02:05 12,9 C 87 % 1009,5 hPa 0,0 mm W 264 0,0 km/h (0 Bft)
07.08.2021 02:10 12,9 C 87 % 1009,6 hPa 0,0 mm W 264 0,0 km/h (0 Bft)
07.08.2021 02:15 12,8 C 87 % 1009,6 hPa 0,0 mm W 264 0,0 km/h (0 Bft)
07.08.2021 02:20 12,8 C 87 % 1009,6 hPa 0,0 mm W 264 0,0 km/h (0 Bft)
07.08.2021 02:25 12,8 C 87 % 1009,6 hPa 0,0 mm W 264 0,0 km/h (0 Bft)
07.08.2021 02:30 12,7 C 87 % 1009,5 hPa 0,0 mm W 264 0,0 km/h (0 Bft)
07.08.2021 02:35 12,6 C 88 % 1009,5 hPa 0,0 mm W 264 0,0 km/h (0 Bft)
07.08.2021 02:40 12,6 C 88 % 1009,6 hPa 0,0 mm W 264 0,0 km/h (0 Bft)
07.08.2021 02:45 12,6 C 88 % 1009,5 hPa 0,0 mm W 264 1,6 km/h (1 Bft)
07.08.2021 02:50 12,6 C 88 % 1009,5 hPa 0,0 mm W 264 0,0 km/h (0 Bft)
07.08.2021 02:55 12,6 C 88 % 1009,7 hPa 0,0 mm W 264 3,2 km/h (1 Bft)
07.08.2021 03:00 12,6 C 88 % 1009,5 hPa 0,0 mm W 264 0,0 km/h (0 Bft)
07.08.2021 03:05 12,6 C 88 % 1009,4 hPa 0,0 mm W 264 0,0 km/h (0 Bft)
07.08.2021 03:10 12,6 C 88 % 1009,3 hPa 0,0 mm W 264 0,0 km/h (0 Bft)
07.08.2021 03:15 12,6 C 88 % 1009,5 hPa 0,0 mm W 264 0,0 km/h (0 Bft)
07.08.2021 03:20 12,6 C 88 % 1009,4 hPa 0,0 mm W 264 0,0 km/h (0 Bft)
07.08.2021 03:25 12,5 C 88 % 1009,2 hPa 0,0 mm W 264 0,0 km/h (0 Bft)
07.08.2021 03:30 12,5 C 88 % 1009,1 hPa 0,0 mm W 264 0,0 km/h (0 Bft)
07.08.2021 03:35 12,4 C 88 % 1009,0 hPa 0,0 mm W 264 1,6 km/h (1 Bft)
07.08.2021 03:40 12,4 C 88 % 1009,0 hPa 0,0 mm W 264 0,0 km/h (0 Bft)
07.08.2021 03:45 12,4 C 88 % 1009,1 hPa 0,0 mm W 264 1,6 km/h (1 Bft)
07.08.2021 03:50 12,4 C 89 % 1009,0 hPa 0,0 mm W 264 0,0 km/h (0 Bft)
07.08.2021 03:55 12,3 C 89 % 1009,1 hPa 0,0 mm W 264 0,0 km/h (0 Bft)
07.08.2021 04:00 12,4 C 89 % 1008,9 hPa 0,0 mm W 264 0,0 km/h (0 Bft)
07.08.2021 04:05 12,4 C 89 % 1008,7 hPa 0,0 mm W 264 0,0 km/h (0 Bft)
07.08.2021 04:10 12,4 C 89 % 1008,8 hPa 0,0 mm W 264 0,0 km/h (0 Bft)
07.08.2021 04:15 12,3 C 89 % 1008,9 hPa 0,0 mm W 264 0,0 km/h (0 Bft)
07.08.2021 04:20 12,3 C 89 % 1009,1 hPa 0,0 mm W 264 0,0 km/h (0 Bft)
07.08.2021 04:25 12,4 C 89 % 1009,0 hPa 0,0 mm W 264 0,0 km/h (0 Bft)
07.08.2021 04:30 12,4 C 89 % 1008,8 hPa 0,0 mm W 264 0,0 km/h (0 Bft)
07.08.2021 04:35 12,4 C 89 % 1008,7 hPa 0,0 mm W 264 0,0 km/h (0 Bft)
07.08.2021 04:40 12,4 C 89 % 1008,7 hPa 0,0 mm W 264 0,0 km/h (0 Bft)
07.08.2021 04:45 12,4 C 89 % 1008,6 hPa 0,0 mm W 264 0,0 km/h (0 Bft)
07.08.2021 04:50 12,4 C 89 % 1008,5 hPa 0,0 mm W 264 0,0 km/h (0 Bft)
07.08.2021 04:55 12,4 C 89 % 1008,4 hPa 0,0 mm W 264 0,0 km/h (0 Bft)
07.08.2021 05:00 12,3 C 89 % 1008,3 hPa 0,0 mm W 264 0,0 km/h (0 Bft)
07.08.2021 05:05 12,3 C 89 % 1008,5 hPa 0,0 mm W 264 0,0 km/h (0 Bft)
07.08.2021 05:10 12,3 C 89 % 1008,5 hPa 0,0 mm W 264 0,0 km/h (0 Bft)
07.08.2021 05:15 12,2 C 89 % 1008,5 hPa 0,0 mm W 264 0,0 km/h (0 Bft)
07.08.2021 05:20 12,2 C 89 % 1008,5 hPa 0,0 mm W 264 0,0 km/h (0 Bft)
07.08.2021 05:25 12,2 C 89 % 1008,5 hPa 0,0 mm W 264 0,0 km/h (0 Bft)
07.08.2021 05:30 12,3 C 89 % 1008,5 hPa 0,0 mm W 264 4,8 km/h (1 Bft)
07.08.2021 05:35 12,3 C 89 % 1008,4 hPa 0,0 mm W 264 3,2 km/h (1 Bft)
07.08.2021 05:40 12,3 C 90 % 1008,4 hPa 0,0 mm W 264 0,0 km/h (0 Bft)
07.08.2021 05:45 12,3 C 90 % 1008,4 hPa 0,0 mm W 264 0,0 km/h (0 Bft)
07.08.2021 05:50 12,3 C 90 % 1008,4 hPa 0,0 mm W 264 0,0 km/h (0 Bft)
07.08.2021 05:55 12,2 C 90 % 1008,4 hPa 0,0 mm W 264 0,0 km/h (0 Bft)
07.08.2021 06:00 12,2 C 90 % 1008,5 hPa 0,0 mm W 264 0,0 km/h (0 Bft)
07.08.2021 06:05 12,2 C 90 % 1008,5 hPa 0,0 mm W 264 0,0 km/h (0 Bft)
07.08.2021 06:10 12,2 C 90 % 1008,5 hPa 0,0 mm W 264 1,6 km/h (1 Bft)
07.08.2021 06:15 12,2 C 90 % 1008,4 hPa 0,0 mm W 264 1,6 km/h (1 Bft)
07.08.2021 06:20 12,1 C 90 % 1008,2 hPa 0,0 mm W 264 0,0 km/h (0 Bft)
07.08.2021 06:25 12,1 C 90 % 1008,1 hPa 0,0 mm W 264 0,0 km/h (0 Bft)
07.08.2021 06:30 12,1 C 90 % 1008,0 hPa 0,0 mm W 264 1,6 km/h (1 Bft)
07.08.2021 06:35 12,2 C 90 % 1007,9 hPa 0,0 mm W 264 0,0 km/h (0 Bft)
07.08.2021 06:40 12,3 C 90 % 1008,0 hPa 0,0 mm W 264 0,0 km/h (0 Bft)
07.08.2021 06:45 12,4 C 90 % 1008,1 hPa 0,0 mm W 264 0,0 km/h (0 Bft)
07.08.2021 06:50 12,5 C 90 % 1008,3 hPa 0,0 mm W 264 0,0 km/h (0 Bft)
07.08.2021 06:55 12,6 C 90 % 1008,2 hPa 0,0 mm W 264 0,0 km/h (0 Bft)
07.08.2021 07:00 12,8 C 91 % 1008,1 hPa 0,0 mm W 264 3,2 km/h (1 Bft)
07.08.2021 07:05 13,2 C 91 % 1008,2 hPa 0,0 mm W 264 3,2 km/h (1 Bft)
07.08.2021 07:10 13,5 C 91 % 1008,2 hPa 0,0 mm W 264 1,6 km/h (1 Bft)
07.08.2021 07:15 13,7 C 91 % 1008,1 hPa 0,0 mm W 264 1,6 km/h (1 Bft)
07.08.2021 07:20 13,9 C 91 % 1008,0 hPa 0,0 mm W 264 1,6 km/h (1 Bft)
07.08.2021 07:25 14,1 C 91 % 1008,0 hPa 0,0 mm W 264 0,0 km/h (0 Bft)
07.08.2021 07:30 14,3 C 91 % 1008,1 hPa 0,0 mm W 264 0,0 km/h (0 Bft)
07.08.2021 07:35 14,4 C 91 % 1008,1 hPa 0,0 mm W 264 0,0 km/h (0 Bft)
07.08.2021 07:40 14,6 C 91 % 1008,1 hPa 0,0 mm W 264 0,0 km/h (0 Bft)
07.08.2021 07:45 14,6 C 91 % 1008,0 hPa 0,0 mm W 264 0,0 km/h (0 Bft)
07.08.2021 07:50 14,7 C 91 % 1008,0 hPa 0,0 mm W 264 0,0 km/h (0 Bft)
07.08.2021 07:55 14,8 C 91 % 1008,0 hPa 0,0 mm W 264 0,0 km/h (0 Bft)
07.08.2021 08:00 14,9 C 91 % 1008,0 hPa 0,0 mm W 264 1,6 km/h (1 Bft)
07.08.2021 08:05 15,1 C 91 % 1008,0 hPa 0,0 mm W 264 1,6 km/h (1 Bft)
07.08.2021 08:10 15,3 C 91 % 1008,0 hPa 0,0 mm W 264 1,6 km/h (1 Bft)
07.08.2021 08:15 15,6 C 91 % 1008,0 hPa 0,0 mm W 264 1,6 km/h (1 Bft)
07.08.2021 08:20 15,9 C 91 % 1008,0 hPa 0,0 mm W 264 1,6 km/h (1 Bft)
07.08.2021 08:25 16,2 C 91 % 1008,0 hPa 0,0 mm O-SO 119 4,8 km/h (1 Bft)
07.08.2021 08:30 16,5 C 90 % 1007,9 hPa 0,0 mm O-SO 117 6,4 km/h (2 Bft)
07.08.2021 08:35 16,8 C 89 % 1007,9 hPa 0,0 mm O-SO 115 8,0 km/h (2 Bft)
07.08.2021 08:40 16,9 C 88 % 1007,8 hPa 0,0 mm O-SO 108 6,4 km/h (2 Bft)
07.08.2021 08:45 17,3 C 88 % 1007,8 hPa 0,0 mm O 84 4,8 km/h (1 Bft)
07.08.2021 08:50 17,4 C 87 % 1007,8 hPa 0,0 mm O 88 4,8 km/h (1 Bft)
07.08.2021 08:55 18,0 C 87 % 1007,8 hPa 0,0 mm SO 128 6,4 km/h (2 Bft)
07.08.2021 09:00 18,2 C 85 % 1007,8 hPa 0,0 mm S-SO 147 6,4 km/h (2 Bft)
07.08.2021 09:05 18,5 C 85 % 1007,7 hPa 0,0 mm SO 129 6,4 km/h (2 Bft)
07.08.2021 09:10 18,4 C 84 % 1007,8 hPa 0,0 mm SO 133 4,8 km/h (1 Bft)
07.08.2021 09:15 18,7 C 84 % 1007,7 hPa 0,0 mm O-SO 107 6,4 km/h (2 Bft)
07.08.2021 09:20 19,0 C 83 % 1007,7 hPa 0,0 mm O-SO 107 4,8 km/h (1 Bft)
07.08.2021 09:25 19,2 C 84 % 1007,6 hPa 0,0 mm O 86 8,0 km/h (2 Bft)
07.08.2021 09:30 19,4 C 84 % 1007,6 hPa 0,0 mm O 85 8,0 km/h (2 Bft)
07.08.2021 09:35 19,4 C 82 % 1007,7 hPa 0,0 mm O 101 9,7 km/h (2 Bft)
07.08.2021 09:40 19,4 C 82 % 1007,6 hPa 0,0 mm O 87 9,7 km/h (2 Bft)
07.08.2021 09:45 19,4 C 81 % 1007,5 hPa 0,2 mm O-SO 113 11,3 km/h (2 Bft)
07.08.2021 09:50 19,7 C 82 % 1007,5 hPa 0,0 mm O 81 11,3 km/h (2 Bft)
07.08.2021 09:55 19,8 C 82 % 1007,5 hPa 0,0 mm O 90 8,0 km/h (2 Bft)
07.08.2021 10:00 19,8 C 79 % 1007,3 hPa 0,0 mm O 80 9,7 km/h (2 Bft)
07.08.2021 10:05 20,3 C 81 % 1007,2 hPa 0,0 mm O-NO 66 12,9 km/h (3 Bft)
07.08.2021 10:10 20,4 C 81 % 1007,0 hPa 0,0 mm O 85 12,9 km/h (3 Bft)
07.08.2021 10:15 20,5 C 80 % 1007,0 hPa 0,0 mm O-NO 78 12,9 km/h (3 Bft)
07.08.2021 10:20 20,7 C 79 % 1007,0 hPa 0,0 mm O 92 12,9 km/h (3 Bft)
07.08.2021 10:25 20,7 C 78 % 1006,9 hPa 0,0 mm O-NO 75 14,5 km/h (3 Bft)
07.08.2021 10:30 20,8 C 76 % 1006,8 hPa 0,0 mm O 96 16,1 km/h (3 Bft)
07.08.2021 10:35 20,9 C 77 % 1006,7 hPa 0,0 mm O 84 16,1 km/h (3 Bft)
07.08.2021 10:40 21,0 C 75 % 1006,7 hPa 0,0 mm O-NO 57 14,5 km/h (3 Bft)
07.08.2021 10:45 21,1 C 75 % 1006,6 hPa 0,0 mm O-SO 103 17,7 km/h (3 Bft)
07.08.2021 10:50 21,3 C 74 % 1006,5 hPa 0,0 mm O 95 17,7 km/h (3 Bft)
07.08.2021 10:55 21,3 C 74 % 1006,3 hPa 0,0 mm O-NO 70 17,7 km/h (3 Bft)
07.08.2021 11:00 21,6 C 76 % 1006,4 hPa 0,0 mm O-SO 121 14,5 km/h (3 Bft)
07.08.2021 11:05 21,6 C 74 % 1006,3 hPa 0,0 mm N-NO 32 16,1 km/h (3 Bft)
07.08.2021 11:10 21,7 C 74 % 1006,3 hPa 0,0 mm O-SO 103 16,1 km/h (3 Bft)
07.08.2021 11:15 21,8 C 73 % 1006,4 hPa 0,0 mm O-SO 115 17,7 km/h (3 Bft)
07.08.2021 11:20 21,9 C 74 % 1006,4 hPa 0,0 mm O 88 12,9 km/h (3 Bft)
07.08.2021 11:25 22,1 C 72 % 1006,4 hPa 0,0 mm O-SO 106 16,1 km/h (3 Bft)
07.08.2021 11:30 22,2 C 73 % 1006,4 hPa 0,0 mm O-NO 78 12,9 km/h (3 Bft)
07.08.2021 11:35 22,6 C 74 % 1006,4 hPa 0,0 mm O-NO 74 12,9 km/h (3 Bft)
07.08.2021 11:40 22,7 C 73 % 1006,3 hPa 0,0 mm O 84 14,5 km/h (3 Bft)
07.08.2021 11:45 22,7 C 72 % 1006,3 hPa 0,0 mm O 83 12,9 km/h (3 Bft)
07.08.2021 11:50 22,8 C 73 % 1006,2 hPa 0,0 mm O-NO 66 12,9 km/h (3 Bft)
07.08.2021 11:55 22,8 C 72 % 1006,2 hPa 0,0 mm O-SO 109 12,9 km/h (3 Bft)
07.08.2021 12:00 22,9 C 72 % 1006,2 hPa 0,0 mm O-NO 73 12,9 km/h (3 Bft)
07.08.2021 12:05 23,1 C 74 % 1006,1 hPa 0,2 mm O-SO 105 12,9 km/h (3 Bft)
07.08.2021 12:10 23,3 C 72 % 1005,9 hPa 0,0 mm O-NO 72 16,1 km/h (3 Bft)
07.08.2021 12:15 23,3 C 70 % 1005,9 hPa 0,0 mm SO 124 17,7 km/h (3 Bft)
07.08.2021 12:20 23,3 C 73 % 1005,8 hPa 0,0 mm SO 132 12,9 km/h (3 Bft)
07.08.2021 12:25 23,5 C 73 % 1005,7 hPa 0,2 mm O 93 12,9 km/h (3 Bft)
07.08.2021 12:30 23,7 C 73 % 1005,6 hPa 0,0 mm O 99 16,1 km/h (3 Bft)
07.08.2021 12:35 23,5 C 72 % 1005,5 hPa 0,0 mm O-NO 75 16,1 km/h (3 Bft)
07.08.2021 12:40 23,5 C 74 % 1005,4 hPa 0,0 mm O-SO 109 14,5 km/h (3 Bft)
07.08.2021 12:45 23,5 C 72 % 1005,3 hPa 0,0 mm O 88 12,9 km/h (3 Bft)
07.08.2021 12:50 23,6 C 72 % 1005,2 hPa 0,2 mm O 93 16,1 km/h (3 Bft)
07.08.2021 12:55 23,7 C 74 % 1005,0 hPa 0,0 mm O 83 17,7 km/h (3 Bft)
07.08.2021 13:00 23,7 C 72 % 1005,0 hPa 0,0 mm O 81 14,5 km/h (3 Bft)
07.08.2021 13:05 23,6 C 73 % 1004,9 hPa 0,0 mm O-SO 113 14,5 km/h (3 Bft)
07.08.2021 13:10 23,7 C 72 % 1004,8 hPa 0,0 mm O 79 16,1 km/h (3 Bft)
07.08.2021 13:15 23,9 C 72 % 1004,8 hPa 0,2 mm O 94 14,5 km/h (3 Bft)
07.08.2021 13:20 24,0 C 73 % 1004,7 hPa 0,0 mm O-SO 121 16,1 km/h (3 Bft)
07.08.2021 13:25 23,9 C 72 % 1004,6 hPa 0,0 mm O 87 14,5 km/h (3 Bft)
07.08.2021 13:30 24,1 C 73 % 1004,6 hPa 0,0 mm O-SO 103 16,1 km/h (3 Bft)
07.08.2021 13:35 23,9 C 73 % 1004,5 hPa 0,0 mm O-NO 63 16,1 km/h (3 Bft)
07.08.2021 13:40 23,8 C 74 % 1004,4 hPa 0,0 mm O 101 16,1 km/h (3 Bft)
07.08.2021 13:45 23,8 C 75 % 1004,3 hPa 0,2 mm O-SO 104 14,5 km/h (3 Bft)
07.08.2021 13:50 23,9 C 74 % 1004,3 hPa 0,0 mm O 98 16,1 km/h (3 Bft)
07.08.2021 13:55 23,9 C 75 % 1004,1 hPa 0,0 mm O-NO 59 16,1 km/h (3 Bft)
07.08.2021 14:00 24,1 C 74 % 1004,1 hPa 0,0 mm O-NO 65 19,3 km/h (3 Bft)
07.08.2021 14:05 24,1 C 72 % 1004,0 hPa 0,0 mm O 98 17,7 km/h (3 Bft)
07.08.2021 14:10 24,3 C 76 % 1004,0 hPa 0,0 mm O 88 16,1 km/h (3 Bft)
07.08.2021 14:15 24,2 C 74 % 1003,8 hPa 0,0 mm O 94 16,1 km/h (3 Bft)
07.08.2021 14:20 24,3 C 73 % 1003,8 hPa 0,2 mm SO 142 17,7 km/h (3 Bft)
07.08.2021 14:25 24,5 C 74 % 1003,7 hPa 0,0 mm O-NO 69 16,1 km/h (3 Bft)
07.08.2021 14:30 24,5 C 73 % 1003,7 hPa 0,0 mm O 81 14,5 km/h (3 Bft)
07.08.2021 14:35 24,6 C 74 % 1003,6 hPa 0,0 mm O-NO 64 14,5 km/h (3 Bft)
07.08.2021 14:40 24,6 C 72 % 1003,5 hPa 0,0 mm O 96 14,5 km/h (3 Bft)
07.08.2021 14:45 24,6 C 73 % 1003,5 hPa 0,0 mm SO 132 16,1 km/h (3 Bft)
07.08.2021 14:50 24,7 C 73 % 1003,5 hPa 0,0 mm O-SO 115 16,1 km/h (3 Bft)
07.08.2021 14:55 24,8 C 73 % 1003,4 hPa 0,0 mm O 80 14,5 km/h (3 Bft)
07.08.2021 15:00 24,8 C 74 % 1003,3 hPa 0,0 mm SO 131 14,5 km/h (3 Bft)
07.08.2021 15:05 24,8 C 73 % 1003,3 hPa 0,0 mm O 86 12,9 km/h (3 Bft)
07.08.2021 15:10 24,8 C 72 % 1003,3 hPa 0,0 mm O-SO 121 16,1 km/h (3 Bft)
07.08.2021 15:15 24,9 C 73 % 1003,2 hPa 0,0 mm O-NO 62 14,5 km/h (3 Bft)
07.08.2021 15:20 24,8 C 72 % 1003,1 hPa 0,0 mm O-SO 111 12,9 km/h (3 Bft)
07.08.2021 15:25 24,9 C 73 % 1003,0 hPa 0,2 mm SO 132 17,7 km/h (3 Bft)
07.08.2021 15:30 24,9 C 74 % 1002,9 hPa 0,0 mm SO 124 16,1 km/h (3 Bft)
07.08.2021 15:35 25,0 C 74 % 1002,9 hPa 0,0 mm S-SO 153 12,9 km/h (3 Bft)
07.08.2021 15:40 25,0 C 72 % 1002,7 hPa 0,0 mm O 100 17,7 km/h (3 Bft)
07.08.2021 15:45 24,9 C 72 % 1002,8 hPa 0,0 mm O-SO 111 16,1 km/h (3 Bft)
07.08.2021 15:50 24,8 C 73 % 1002,7 hPa 0,0 mm O-SO 116 14,5 km/h (3 Bft)
07.08.2021 15:55 24,8 C 73 % 1002,7 hPa 0,0 mm O-SO 112 16,1 km/h (3 Bft)
07.08.2021 16:00 24,8 C 73 % 1002,6 hPa 0,0 mm O-SO 123 16,1 km/h (3 Bft)
07.08.2021 16:05 24,8 C 73 % 1002,6 hPa 0,0 mm O-SO 115 16,1 km/h (3 Bft)
07.08.2021 16:10 24,8 C 73 % 1002,5 hPa 0,0 mm O-SO 105 14,5 km/h (3 Bft)
07.08.2021 16:15 24,8 C 74 % 1002,5 hPa 0,0 mm O 80 16,1 km/h (3 Bft)
07.08.2021 16:20 24,9 C 75 % 1002,5 hPa 0,0 mm O 89 12,9 km/h (3 Bft)
07.08.2021 16:25 24,9 C 74 % 1002,5 hPa 0,0 mm O-NO 59 11,3 km/h (2 Bft)
07.08.2021 16:30 24,9 C 74 % 1002,4 hPa 0,0 mm O-NO 68 11,3 km/h (2 Bft)
07.08.2021 16:35 25,0 C 74 % 1002,4 hPa 0,0 mm O 100 11,3 km/h (2 Bft)
07.08.2021 16:40 25,0 C 74 % 1002,4 hPa 0,0 mm O-SO 109 11,3 km/h (2 Bft)
07.08.2021 16:45 25,1 C 75 % 1002,3 hPa 0,0 mm O 79 9,7 km/h (2 Bft)
07.08.2021 16:50 25,0 C 75 % 1002,2 hPa 0,0 mm O-NO 74 9,7 km/h (2 Bft)
07.08.2021 16:55 25,0 C 75 % 1002,2 hPa 0,0 mm O 90 14,5 km/h (3 Bft)
07.08.2021 17:00 25,0 C 74 % 1002,2 hPa 0,0 mm O-NO 64 14,5 km/h (3 Bft)
07.08.2021 17:05 25,0 C 75 % 1002,2 hPa 0,0 mm O 94 14,5 km/h (3 Bft)
07.08.2021 17:10 25,0 C 74 % 1002,1 hPa 0,0 mm O 81 14,5 km/h (3 Bft)
07.08.2021 17:15 25,0 C 74 % 1002,0 hPa 0,0 mm O 94 16,1 km/h (3 Bft)
07.08.2021 17:20 25,1 C 74 % 1002,0 hPa 0,0 mm O 94 14,5 km/h (3 Bft)
07.08.2021 17:25 25,1 C 74 % 1001,8 hPa 0,0 mm O 86 14,5 km/h (3 Bft)
07.08.2021 17:30 25,1 C 73 % 1001,7 hPa 0,0 mm O 93 19,3 km/h (3 Bft)
07.08.2021 17:35 25,1 C 74 % 1001,6 hPa 0,0 mm O-SO 103 14,5 km/h (3 Bft)
07.08.2021 17:40 25,0 C 73 % 1001,4 hPa 0,0 mm O-NO 67 17,7 km/h (3 Bft)
07.08.2021 17:45 24,9 C 73 % 1001,4 hPa 0,0 mm O 96 17,7 km/h (3 Bft)
07.08.2021 17:50 24,9 C 73 % 1001,2 hPa 0,0 mm O-NO 74 12,9 km/h (3 Bft)
07.08.2021 17:55 24,8 C 74 % 1001,0 hPa 0,0 mm O 87 16,1 km/h (3 Bft)
07.08.2021 18:00 24,7 C 75 % 1001,0 hPa 0,0 mm O-NO 71 12,9 km/h (3 Bft)
07.08.2021 18:05 24,7 C 76 % 1000,8 hPa 0,0 mm O-NO 65 11,3 km/h (2 Bft)
07.08.2021 18:10 24,7 C 76 % 1000,8 hPa 0,0 mm O-NO 58 8,0 km/h (2 Bft)
07.08.2021 18:15 24,6 C 76 % 1000,6 hPa 0,0 mm O 96 8,0 km/h (2 Bft)
07.08.2021 18:20 24,6 C 76 % 1000,6 hPa 0,0 mm O 97 4,8 km/h (1 Bft)
07.08.2021 18:25 24,6 C 76 % 1000,5 hPa 0,0 mm O 97 1,6 km/h (1 Bft)
07.08.2021 18:30 24,6 C 76 % 1000,4 hPa 0,0 mm O 84 4,8 km/h (1 Bft)
07.08.2021 18:35 24,6 C 76 % 1000,3 hPa 0,0 mm O-SO 111 6,4 km/h (2 Bft)
07.08.2021 18:40 24,4 C 72 % 1000,3 hPa 0,0 mm O 95 9,7 km/h (2 Bft)
07.08.2021 18:45 24,4 C 71 % 1000,1 hPa 0,0 mm SO 144 6,4 km/h (2 Bft)
07.08.2021 18:50 24,3 C 64 % 1000,0 hPa 0,0 mm O 89 11,3 km/h (2 Bft)
07.08.2021 18:55 24,3 C 59 % 1000,0 hPa 0,0 mm O 96 22,5 km/h (4 Bft)
07.08.2021 19:00 24,4 C 57 % 1000,1 hPa 0,0 mm SO 140 12,9 km/h (3 Bft)
07.08.2021 19:05 24,6 C 57 % 1000,5 hPa 0,0 mm O-SO 111 14,5 km/h (3 Bft)
07.08.2021 19:10 24,7 C 59 % 1003,4 hPa 0,0 mm W 269 48,3 km/h (6 Bft)
07.08.2021 19:15 24,5 C 58 % 1004,1 hPa 0,0 mm W 270 49,9 km/h (6 Bft)
07.08.2021 19:20 23,8 C 57 % 1005,6 hPa 0,0 mm SW 232 56,3 km/h (7 Bft)
07.08.2021 19:25 22,8 C 59 % 1006,2 hPa 0,0 mm W 263 51,5 km/h (7 Bft)
07.08.2021 19:30 21,9 C 62 % 1006,7 hPa 0,0 mm W-NW 298 48,3 km/h (6 Bft)
07.08.2021 19:35 21,2 C 65 % 1006,8 hPa 0,0 mm W-SW 238 49,9 km/h (6 Bft)
07.08.2021 19:40 20,6 C 67 % 1007,5 hPa 0,0 mm W 262 43,5 km/h (6 Bft)
07.08.2021 19:45 20,1 C 69 % 1007,9 hPa 0,0 mm W 277 30,6 km/h (5 Bft)
07.08.2021 19:50 19,6 C 70 % 1007,9 hPa 0,0 mm W-NW 294 35,4 km/h (5 Bft)
07.08.2021 19:55 19,2 C 71 % 1008,2 hPa 0,0 mm SW 234 30,6 km/h (5 Bft)
07.08.2021 20:00 18,7 C 72 % 1008,3 hPa 0,0 mm W 277 35,4 km/h (5 Bft)
07.08.2021 20:05 18,3 C 74 % 1008,5 hPa 0,0 mm W 280 27,4 km/h (4 Bft)
07.08.2021 20:10 18,0 C 75 % 1008,6 hPa 0,0 mm W 269 24,1 km/h (4 Bft)
07.08.2021 20:15 17,8 C 75 % 1008,8 hPa 0,0 mm W 271 22,5 km/h (4 Bft)
07.08.2021 20:20 17,7 C 76 % 1009,1 hPa 0,0 mm W 271 17,7 km/h (3 Bft)
07.08.2021 20:25 17,6 C 77 % 1009,3 hPa 0,0 mm W-SW 250 19,3 km/h (3 Bft)
07.08.2021 20:30 17,4 C 77 % 1009,6 hPa 0,0 mm W 271 22,5 km/h (4 Bft)
07.08.2021 20:35 17,2 C 77 % 1009,4 hPa 0,0 mm W 278 27,4 km/h (4 Bft)
07.08.2021 20:40 17,1 C 78 % 1009,5 hPa 0,0 mm W 269 20,9 km/h (4 Bft)
07.08.2021 20:45 17,1 C 79 % 1009,7 hPa 0,0 mm W 267 11,3 km/h (2 Bft)
07.08.2021 20:50 17,0 C 79 % 1009,7 hPa 0,0 mm W-SW 258 17,7 km/h (3 Bft)
07.08.2021 20:55 16,9 C 80 % 1009,7 hPa 0,2 mm W-SW 240 12,9 km/h (3 Bft)
07.08.2021 21:00 16,8 C 80 % 1009,9 hPa 0,0 mm W 263 19,3 km/h (3 Bft)
07.08.2021 21:05 16,7 C 80 % 1009,7 hPa 0,0 mm W-SW 249 14,5 km/h (3 Bft)
07.08.2021 21:10 16,6 C 81 % 1009,8 hPa 0,0 mm W 259 14,5 km/h (3 Bft)
07.08.2021 21:15 16,4 C 81 % 1009,9 hPa 0,0 mm W 279 12,9 km/h (3 Bft)
07.08.2021 21:20 16,4 C 81 % 1010,1 hPa 0,0 mm W 281 6,4 km/h (2 Bft)
07.08.2021 21:25 16,3 C 81 % 1010,1 hPa 0,0 mm W 281 4,8 km/h (1 Bft)
07.08.2021 21:30 16,2 C 81 % 1010,3 hPa 0,0 mm W 281 1,6 km/h (1 Bft)
07.08.2021 21:35 16,2 C 82 % 1010,4 hPa 0,0 mm W 281 0,0 km/h (0 Bft)
07.08.2021 21:40 16,1 C 82 % 1010,5 hPa 0,0 mm W 281 0,0 km/h (0 Bft)
07.08.2021 21:45 16,1 C 82 % 1010,6 hPa 0,0 mm W 281 0,0 km/h (0 Bft)
07.08.2021 21:50 16,0 C 82 % 1010,6 hPa 0,0 mm W 281 3,2 km/h (1 Bft)
07.08.2021 21:55 15,9 C 83 % 1010,7 hPa 0,0 mm W 281 3,2 km/h (1 Bft)
07.08.2021 22:00 15,9 C 83 % 1010,6 hPa 0,0 mm W 281 0,0 km/h (0 Bft)
07.08.2021 22:05 15,8 C 83 % 1010,6 hPa 0,0 mm W 281 1,6 km/h (1 Bft)
07.08.2021 22:10 15,8 C 84 % 1010,7 hPa 0,0 mm W 281 1,6 km/h (1 Bft)
07.08.2021 22:15 15,8 C 84 % 1010,7 hPa 0,0 mm W 281 1,6 km/h (1 Bft)
07.08.2021 22:20 15,7 C 84 % 1010,9 hPa 0,0 mm W 281 1,6 km/h (1 Bft)
07.08.2021 22:25 15,7 C 84 % 1010,8 hPa 0,0 mm W 281 0,0 km/h (0 Bft)
07.08.2021 22:30 15,6 C 84 % 1011,0 hPa 0,0 mm NO 42 6,4 km/h (2 Bft)
07.08.2021 22:35 15,6 C 84 % 1011,1 hPa 0,0 mm NO 42 0,0 km/h (0 Bft)
07.08.2021 22:40 15,5 C 84 % 1011,0 hPa 0,0 mm NO 42 0,0 km/h (0 Bft)
07.08.2021 22:45 15,5 C 85 % 1011,0 hPa 0,0 mm NO 42 0,0 km/h (0 Bft)
07.08.2021 22:50 15,4 C 85 % 1011,1 hPa 0,0 mm NO 42 0,0 km/h (0 Bft)
07.08.2021 22:55 15,4 C 85 % 1011,0 hPa 0,0 mm NO 42 0,0 km/h (0 Bft)
07.08.2021 23:00 15,4 C 85 % 1011,0 hPa 0,0 mm NO 42 0,0 km/h (0 Bft)
07.08.2021 23:05 15,3 C 85 % 1011,0 hPa 0,0 mm NO 42 0,0 km/h (0 Bft)
07.08.2021 23:10 15,3 C 85 % 1011,1 hPa 0,0 mm NO 42 0,0 km/h (0 Bft)
07.08.2021 23:15 15,3 C 85 % 1011,0 hPa 0,0 mm NO 42 0,0 km/h (0 Bft)
07.08.2021 23:20 15,2 C 85 % 1011,0 hPa 0,0 mm NO 42 0,0 km/h (0 Bft)
07.08.2021 23:25 15,2 C 85 % 1011,0 hPa 0,0 mm NO 42 0,0 km/h (0 Bft)
07.08.2021 23:30 15,2 C 86 % 1011,1 hPa 0,0 mm NO 42 0,0 km/h (0 Bft)
07.08.2021 23:35 15,2 C 86 % 1011,0 hPa 0,0 mm NO 42 0,0 km/h (0 Bft)
07.08.2021 23:40 15,1 C 86 % 1011,0 hPa 0,0 mm NO 42 0,0 km/h (0 Bft)
07.08.2021 23:45 15,1 C 86 % 1011,2 hPa 0,0 mm NO 42 0,0 km/h (0 Bft)
07.08.2021 23:50 15,1 C 86 % 1011,2 hPa 0,0 mm NO 42 0,0 km/h (0 Bft)
07.08.2021 23:55 15,1 C 87 % 1011,3 hPa 0,0 mm NO 42 0,0 km/h (0 Bft)
_ Min-Zeit 06:15 19:00 18:50 - - - 00:00
Minimum _ 12,1 C 57 % 1000,0 hPa - - - 0,0 km/h (0 Bft)
_ Max-Zeit 15:40 07:00 23:55 09:45 - - 19:20
Maximum _ 25,1 C 91 % 1011,3 hPa 0,2 mm - - 56,3 km/h
W-SW (7 Bft)
Durchschnitt _ 18,4 C 81 % 1007,0 hPa #1,8 mm W - 8,9 km/h (2 Bft)